Back to catalog

STARLINK-36631

AliveCommunicationsSSO
NORAD 67602·PAYLOAD·🇺🇸 United States

Launched Jan 29, 2026 from Vandenberg Space Force Base

Loading…

Next Passes (next 24 hours)

TLE

FreshSource: CelesTrak SupGP

Epoch: Sep 14, 2026, 22:29 UTC

1 67602C 26018P   26257.93729167  .00000654  00000+0  20299-4 0  2571
2 67602  97.2846 321.5339 0000881  87.0395 198.1913 15.33436076    15

Track STARLINK-36631 in real time with AllMySat

Download on the App Store